When you browse on this site, cookies collect data to enhance your experience and personalize the content and advertising you see.
Visit our Privacy Policy to learn more. By continuing to use the site, you agree to this use of cookies and data.
  • In Deutschland
  • Länderverzeichnis
  • Für 7 Tage
  • Wassertemperatur
  • Wetterkarte
  • Widgets
  • user-avatar
    Anmelden

    Stündliche Wetter Baraki Barak

    Heute, 21 November, Donnerstag

    Zeit Temperatur Niederschläge Wind Luftdruck Luftfeuchtigkeit
    00:00 +5°C° 0.3 mm 1 m/S 597 mmHg 93%
    01:00 +5°C° 0.3 mm 1 m/S 597 mmHg 93%
    02:00 +5°C° 0.3 mm 1 m/S 597 mmHg 93%
    03:00 +5°C° 0.2 mm 1 m/S 597 mmHg 93%
    04:00 +5°C° 0.2 mm 1 m/S 596 mmHg 94%
    05:00 +4°C° 0 mm 2 m/S 596 mmHg 94%
    06:00 +4°C° 0.3 mm 2 m/S 596 mmHg 94%
    07:00 +5°C° 0.3 mm 1 m/S 597 mmHg 94%
    08:00 +5°C° 0.3 mm 1 m/S 597 mmHg 94%
    09:00 +5°C° 0.3 mm 1 m/S 597 mmHg 94%
    10:00 +5°C° 0.3 mm 1 m/S 597 mmHg 94%
    11:00 +4°C° 0 mm 2 m/S 597 mmHg 95%
    12:00 +5°C° 0.8 mm 1 m/S 597 mmHg 95%
    13:00 +5°C° 0.8 mm 1 m/S 596 mmHg 96%
    14:00 +5°C° 0.8 mm 1 m/S 596 mmHg 96%
    15:00 +5°C° 0.7 mm 1 m/S 596 mmHg 96%
    16:00 +5°C° 0.7 mm 1 m/S 596 mmHg 96%
    17:00 +5°C° 0.7 mm 1 m/S 596 mmHg 96%
    18:00 +5°C° 0.5 mm 1 m/S 596 mmHg 96%
    19:00 +5°C° 0.5 mm 1 m/S 597 mmHg 95%
    20:00 +6°C° 0.5 mm 1 m/S 597 mmHg 95%
    21:00 +6°C° 0.5 mm 1 m/S 597 mmHg 95%
    22:00 +6°C° 0.5 mm 1 m/S 597 mmHg 94%
    23:00 +6°C° 0.5 mm 1 m/S 597 mmHg 94%

    Morgen, 22 November, Freitag

    Zeit Temperatur Niederschläge Wind Luftdruck Luftfeuchtigkeit
    00:00 +5°C° 1.1 mm 1 m/S 597 mmHg 94%
    01:00 +5°C° 1.1 mm 1 m/S 596 mmHg 94%
    02:00 +5°C° 1.1 mm 1 m/S 596 mmHg 95%
    03:00 +5°C° 1.6 mm 1 m/S 596 mmHg 95%
    04:00 +5°C° 1.6 mm 1 m/S 596 mmHg 96%
    05:00 +5°C° 1.6 mm 1 m/S 596 mmHg 97%
    06:00 +5°C° 0.9 mm 1 m/S 596 mmHg 97%
    07:00 +5°C° 0.9 mm 1 m/S 596 mmHg 97%
    08:00 +5°C° 0.9 mm 1 m/S 596 mmHg 97%
    09:00 +5°C° 0.3 mm 1 m/S 596 mmHg 95%
    10:00 +6°C° 0.3 mm 1 m/S 597 mmHg 93%
    11:00 +6°C° 0.3 mm 1 m/S 597 mmHg 92%
    12:00 +6°C° 0.3 mm 1 m/S 597 mmHg 93%
    13:00 +6°C° 0.3 mm 1 m/S 596 mmHg 94%
    14:00 +6°C° 0.3 mm 1 m/S 596 mmHg 94%
    15:00 +6°C° 0.2 mm 1 m/S 596 mmHg 94%
    16:00 +6°C° 0.2 mm 1 m/S 596 mmHg 94%
    17:00 +6°C° 0.2 mm 1 m/S 596 mmHg 94%
    18:00 +6°C° 0.2 mm 1 m/S 596 mmHg 94%
    19:00 +6°C° 0.2 mm 1 m/S 597 mmHg 94%
    20:00 +6°C° 0.2 mm 1 m/S 597 mmHg 94%
    21:00 +6°C° 0.2 mm 1 m/S 597 mmHg 94%
    22:00 +5°C° 0.2 mm 1 m/S 597 mmHg 94%
    23:00 +5°C° 0.2 mm 1 m/S 597 mmHg 94%

    übermorgen, 23 November, Samstag

    Zeit Temperatur Niederschläge Wind Luftdruck Luftfeuchtigkeit
    00:00 +5°C° 0.1 mm 1 m/S 597 mmHg 94%
    01:00 +5°C° 0.1 mm 1 m/S 597 mmHg 93%
    02:00 +4°C° 0.1 mm 0 m/S 597 mmHg 93%
    03:00 +3°C° 0.1 mm 0 m/S 597 mmHg 92%
    04:00 +3°C° 0.1 mm 0 m/S 597 mmHg 91%
    05:00 +3°C° 0.1 mm 0 m/S 597 mmHg 90%
    06:00 +3°C° 0 mm 0 m/S 597 mmHg 87%
    07:00 +4°C° 0 mm 1 m/S 598 mmHg 85%
    08:00 +4°C° 0 mm 1 m/S 598 mmHg 82%
    09:00 +5°C° 0 mm 1 m/S 598 mmHg 79%
    10:00 +5°C° 0 mm 1 m/S 598 mmHg 76%
    11:00 +6°C° 0 mm 1 m/S 598 mmHg 73%
    12:00 +6°C° 0 mm 1 m/S 598 mmHg 71%
    13:00 +7°C° 0 mm 1 m/S 597 mmHg 70%
    14:00 +7°C° 0 mm 1 m/S 597 mmHg 68%
    15:00 +7°C° 0 mm 1 m/S 597 mmHg 68%
    16:00 +6°C° 0 mm 1 m/S 597 mmHg 67%
    17:00 +6°C° 0 mm 1 m/S 597 mmHg 67%
    18:00 +5°C° 0 mm 1 m/S 597 mmHg 69%
    19:00 +5°C° 0 mm 1 m/S 597 mmHg 70%
    20:00 +4°C° 0 mm 1 m/S 598 mmHg 72%
    21:00 +4°C° 0 mm 1 m/S 597 mmHg 71%
    22:00 +4°C° 0 mm 1 m/S 597 mmHg 71%
    23:00 +3°C° 0 mm 1 m/S 597 mmHg 70%

    24 November, Sonntag

    Zeit Temperatur Niederschläge Wind Luftdruck Luftfeuchtigkeit
    00:00 +3°C° 0 mm 1 m/S 597 mmHg 70%
    01:00 +3°C° 0 mm 1 m/S 597 mmHg 70%
    02:00 +3°C° 0 mm 1 m/S 597 mmHg 69%
    03:00 +3°C° 0 mm 1 m/S 596 mmHg 69%
    04:00 +3°C° 0 mm 1 m/S 596 mmHg 69%
    05:00 +2°C° 0 mm 1 m/S 596 mmHg 69%
    06:00 +3°C° 0 mm 1 m/S 596 mmHg 67%
    07:00 +3°C° 0 mm 1 m/S 596 mmHg 66%
    08:00 +3°C° 0 mm 1 m/S 597 mmHg 64%
    09:00 +4°C° 0 mm 1 m/S 597 mmHg 62%
    10:00 +4°C° 0 mm 1 m/S 597 mmHg 60%
    11:00 +5°C° 0 mm 1 m/S 597 mmHg 58%
    12:00 +6°C° 0 mm 1 m/S 596 mmHg 57%
    13:00 +6°C° 0 mm 1 m/S 596 mmHg 57%
    14:00 +7°C° 0 mm 1 m/S 596 mmHg 57%
    15:00 +7°C° 0 mm 1 m/S 596 mmHg 56%
    16:00 +6°C° 0 mm 1 m/S 596 mmHg 56%
    17:00 +6°C° 0 mm 1 m/S 596 mmHg 55%
    18:00 +5°C° 0 mm 1 m/S 596 mmHg 57%
    19:00 +5°C° 0 mm 1 m/S 596 mmHg 58%
    20:00 +4°C° 0 mm 1 m/S 596 mmHg 59%
    21:00 +4°C° 0 mm 1 m/S 596 mmHg 58%
    22:00 +3°C° 0 mm 1 m/S 596 mmHg 57%
    23:00 +3°C° 0 mm 1 m/S 596 mmHg 57%

    25 November, Montag

    Zeit Temperatur Niederschläge Wind Luftdruck Luftfeuchtigkeit
    00:00 +3°C° 0 mm 1 m/S 596 mmHg 56%
    01:00 +3°C° 0 mm 1 m/S 596 mmHg 55%
    02:00 +3°C° 0 mm 1 m/S 596 mmHg 54%
    03:00 +3°C° 0 mm 1 m/S 596 mmHg 53%
    04:00 +3°C° 0 mm 1 m/S 596 mmHg 52%
    05:00 +3°C° 0 mm 1 m/S 596 mmHg 52%
    06:00 +3°C° 0 mm 1 m/S 596 mmHg 51%
    07:00 +3°C° 0 mm 1 m/S 596 mmHg 50%
    08:00 +3°C° 0 mm 1 m/S 596 mmHg 49%
    09:00 +4°C° 0 mm 1 m/S 596 mmHg 48%
    10:00 +4°C° 0 mm 0 m/S 597 mmHg 47%
    11:00 +5°C° 0 mm 0 m/S 597 mmHg 46%
    12:00 +5°C° 0 mm 0 m/S 596 mmHg 47%
    13:00 +6°C° 0 mm 0 m/S 596 mmHg 49%
    14:00 +6°C° 0 mm 0 m/S 596 mmHg 51%
    15:00 +6°C° 0 mm 0 m/S 596 mmHg 51%
    16:00 +5°C° 0 mm 0 m/S 596 mmHg 52%
    17:00 +5°C° 0 mm 0 m/S 596 mmHg 52%
    18:00 +5°C° 0 mm 1 m/S 596 mmHg 55%
    19:00 +5°C° 0 mm 1 m/S 596 mmHg 57%
    20:00 +4°C° 0 mm 1 m/S 596 mmHg 59%
    21:00 +4°C° 0 mm 1 m/S 596 mmHg 60%
    22:00 +4°C° 0 mm 1 m/S 596 mmHg 60%
    23:00 +3°C° 0 mm 1 m/S 596 mmHg 61%

    26 November, Dienstag

    Zeit Temperatur Niederschläge Wind Luftdruck Luftfeuchtigkeit
    00:00 +3°C° 0 mm 1 m/S 596 mmHg 62%
    01:00 +3°C° 0 mm 1 m/S 596 mmHg 62%
    02:00 +3°C° 0 mm 1 m/S 596 mmHg 62%
    03:00 +3°C° 0 mm 1 m/S 596 mmHg 62%
    04:00 +2°C° 0 mm 1 m/S 596 mmHg 63%
    05:00 +2°C° 0 mm 1 m/S 596 mmHg 63%
    06:00 +2°C° 0 mm 1 m/S 596 mmHg 62%
    07:00 +2°C° 0 mm 1 m/S 596 mmHg 62%
    08:00 +2°C° 0 mm 1 m/S 597 mmHg 61%
    09:00 +3°C° 0 mm 1 m/S 597 mmHg 58%
    10:00 +5°C° 0 mm 1 m/S 598 mmHg 55%
    11:00 +6°C° 0 mm 1 m/S 598 mmHg 53%
    12:00 +6°C° 0 mm 1 m/S 598 mmHg 53%
    13:00 +7°C° 0 mm 1 m/S 597 mmHg 53%
    14:00 +7°C° 0 mm 1 m/S 597 mmHg 54%
    15:00 +7°C° 0 mm 1 m/S 597 mmHg 55%
    16:00 +6°C° 0 mm 1 m/S 597 mmHg 56%
    17:00 +6°C° 0 mm 1 m/S 597 mmHg 57%
    18:00 +5°C° 0 mm 1 m/S 597 mmHg 59%
    19:00 +5°C° 0 mm 1 m/S 597 mmHg 61%
    20:00 +4°C° 0 mm 1 m/S 597 mmHg 63%
    21:00 +4°C° 0 mm 1 m/S 597 mmHg 64%
    22:00 +4°C° 0 mm 1 m/S 597 mmHg 64%
    23:00 +4°C° 0 mm 1 m/S 597 mmHg 65%
    Mehr zeigen